ONEWEB-0255 (48973 NORAD) Tracking and Keplerian Element Data

This shows tracking and keplerian element data for the satellite.

Feedback or suggestion? Click here.




ElementValue
Catalog48973
NameONEWEB-0255
Epoch Orbit1394
Epoch Day269.25001157
Epoch Year2021
RAAN211.9054
Inclination87.9018
Eccentricity0.0006357
Argument of Perigee354.2058
Mean Anonmoly152.9066
Mean Motion13.4505157
Decay Rate1.4E-07
L11 48973U 21060G 21269.25001157 .00000014 00000-0 00000+0 0 9995
L22 48973 87.9018 211.9054 0006357 354.2058 152.9066 13.45051570 13943

Live tracking and technical data element details for ONEWEB-0255 (NORAD 48973). ONEWEB-0255 can be tracked NOW for your location showing map with azimuth and elevation plus other details from your city location.

Track the satellite on the map from your city or location and see movement details for azimuth, elevation, latitude, longitude, range, height, and movement on the map or in text.







IsCatalogInMostPopularTable: catalog: 48973, numindb: 17
Update: records affected: 1



GetName: 48973 ONEWEB-0255

Hit Count: updated at: Sun, 26 Sep 2021 15:36:49 GMT